Location: Wells
(51.2093°N, 2.6446°W)
Time: 05:33:34
(UTC+00:00)

ARIANE 6 FM1 Upper Stage - Visible Passes

Search period start: 18 January 2026 00:00
Search period end: 28 January 2026 00:00
Orbit: 522 x 610 km, 62.0° (Epoch: 17 January)

Date Brightness Start Highest point End Pass type
(mag) Time Alt. Az. Time Alt. Az. Time Alt. Az.
20 Jan 5.1 19:12:39 10° S 19:12:51 11° S 19:12:51 11° S visible
21 Jan 4.5 19:12:21 10° S 19:13:49 19° S 19:13:49 19° S visible
22 Jan 3.8 19:12:14 10° SSW 19:14:43 32° S 19:14:43 32° S visible
23 Jan 4.8 17:37:27 10° ESE 17:37:59 10° ESE 17:38:30 10° ESE visible
23 Jan 3.0 19:12:13 10° SW 19:15:30 52° S 19:15:30 52° S visible
24 Jan 4.5 17:35:40 10° SSE 17:37:56 15° ESE 17:40:10 10° E visible
24 Jan 2.5 19:12:20 10° SW 19:16:12 80° SW 19:16:12 80° SW visible
25 Jan 4.1 17:34:55 10° S 17:37:57 20° ESE 17:40:47 11° ENE visible
25 Jan 2.6 19:12:33 10° SW 19:16:36 69° NW 19:16:49 67° NNW visible
26 Jan 3.7 17:34:28 10° S 17:37:59 28° SE 17:41:20 10° ENE visible
26 Jan 3.1 19:12:51 10° WSW 19:16:49 52° NW 19:17:22 48° N visible
27 Jan 3.3 17:34:14 10° SSW 17:38:02 38° SE 17:41:46 10° ENE visible
27 Jan 3.5 19:13:13 10° WSW 19:17:03 41° NNW 19:17:51 36° N visible
